{"data":{"norad_id":63777,"epoch":"2026-09-20T09:44:00.379680Z","epoch_age_seconds":157995,"freshness":"FRESH","line1":"1 63777U 25091C   26263.40555995  .00011755  00000+0  43594-3 0  9994","line2":"2 63777  43.0042  25.7202 0001569 249.4169 110.6515 15.27586372 78762","mean_motion":15.27586372,"eccentricity":0.0001569,"inclination_deg":43.0042,"raan_deg":25.7202,"arg_perigee_deg":249.4169,"mean_anomaly_deg":110.6515,"bstar":0.00043594,"rev_number":7876,"period_min":94.266355500061,"perigee_km":481.95349894084,"apogee_km":484.10653315048,"semimajor_km":6861.1670160457,"source":"CELESTRAK","updated_at":"2026-09-21T09:00:35.098105Z"}}